Weather History for Ingleside, TX

Change the Weather History Date:

Monday, October 8, 2012

  Actual Average Record
Temperature  
Mean Temperature 65 °F -  
Max Temperature 71 °F - - ()
Min Temperature 59 °F - - ()
Growing Degree Days 15 (Base 50)    
Moisture  
Dew Point 52 °F    
Average Humidity 64    
Maximum Humidity 79    
Minimum Humidity 54    
Precipitation  
Precipitation 0.00 in - - ()
Sea Level Pressure  
Sea Level Pressure 30.14 in    
Wind  
Wind Speed 11 mph (NNE)    
Max Wind Speed 18 mph    
Max Gust Speed 23 mph    
Visibility 10 miles    
Events      
T = Trace of Precipitation, MM = Missing Value Source: NWS Daily Summary

Daily Weather History Graph

Daily Weather History Graph

Search for Another Location

Airport:

Trip Planner

Search our weather history database for the weather conditions in past years. The results will help you decide how hot, cold, wet, or windy it might be!

Date:

Astronomy

Oct. 08, 2012 Rise Set
Actual Time 7:25 AM CDT 7:06 PM CDT
Civil Twilight 7:02 AM CDT 7:29 PM CDT
Nautical Twilight 6:34 AM CDT 7:57 PM CDT
Astronomical Twilight 6:07 AM CDT 8:24 PM CDT
Moon 12:39 AM CDT (10/8) 2:25 PM CDT (10/8)
Length of Visible Light 12h 27m
Length of Day
11h 40m
Last Quarter, 46% of the Moon is Illuminated
Oct 8
Last Quarter
Oct 15
New
Oct 21
First Quarter
Oct 29
Full
Nov 6
Last Quarter

Hourly Weather History & Observations

Time (CDT) Temp. Dew Point Humidity Pressure Visibility Wind Dir Wind Speed Gust Speed Precip Events Conditions
12:15 AM 64.0 °F 51.6 °F 64% 30.14 in 10.0 mi North 13.8 mph 18.4 mph N/A   Overcast
12:35 AM 63.7 °F 51.6 °F 65% 30.14 in 10.0 mi North 13.8 mph 20.7 mph N/A   Overcast
12:55 AM 63.5 °F 51.8 °F 66% 30.14 in 10.0 mi North 12.7 mph 16.1 mph N/A   Overcast
1:15 AM 63.5 °F 51.3 °F 64% 30.14 in 10.0 mi North 15.0 mph 18.4 mph N/A   Overcast
1:35 AM 63.5 °F 50.4 °F 62% 30.14 in 10.0 mi North 11.5 mph - N/A   Overcast
1:55 AM 63.1 °F 50.2 °F 63% 30.14 in 10.0 mi North 12.7 mph - N/A   Overcast
2:15 AM 63.0 °F 49.8 °F 62% 30.15 in 10.0 mi North 11.5 mph 18.4 mph N/A   Overcast
2:35 AM 63.0 °F 49.6 °F 62% 30.15 in 10.0 mi North 16.1 mph - N/A   Overcast
2:55 AM 63.0 °F 49.5 °F 61% 30.15 in 10.0 mi North 13.8 mph 19.6 mph N/A   Overcast
3:15 AM 62.8 °F 49.3 °F 61% 30.15 in 10.0 mi North 15.0 mph - N/A   Overcast
3:35 AM 62.6 °F 49.1 °F 61% 30.15 in 10.0 mi North 13.8 mph - N/A   Overcast
3:55 AM 62.6 °F 49.3 °F 62% 30.13 in 10.0 mi NNE 17.3 mph 23.0 mph N/A   Overcast
4:15 AM 62.2 °F 49.1 °F 62% 30.12 in 10.0 mi NNE 18.4 mph - N/A   Overcast
4:35 AM 61.9 °F 49.5 °F 64% 30.12 in 10.0 mi NNE 15.0 mph 21.9 mph N/A   Overcast
4:55 AM 62.1 °F 50.0 °F 65% 30.12 in 10.0 mi North 11.5 mph - N/A   Overcast
5:15 AM 61.7 °F 49.3 °F 64% 30.12 in 10.0 mi NNE 15.0 mph - N/A   Overcast
5:35 AM 61.7 °F 49.3 °F 64% 30.13 in 10.0 mi North 15.0 mph - N/A   Overcast
5:55 AM 61.7 °F 49.5 °F 64% 30.14 in 10.0 mi North 16.1 mph 19.6 mph N/A   Overcast
6:15 AM 61.0 °F 49.1 °F 65% 30.14 in 10.0 mi North 17.3 mph 21.9 mph N/A   Overcast
6:35 AM 60.3 °F 49.3 °F 67% 30.14 in 10.0 mi North 15.0 mph 20.7 mph N/A   Overcast
6:55 AM 59.9 °F 49.6 °F 69% 30.15 in 10.0 mi North 13.8 mph - N/A   Overcast
7:15 AM 59.7 °F 48.9 °F 67% 30.16 in 10.0 mi North 12.7 mph - N/A   Overcast
7:35 AM 59.4 °F 48.7 °F 68% 30.16 in 10.0 mi North 13.8 mph - N/A   Overcast
7:55 AM 59.4 °F 48.9 °F 68% 30.17 in 10.0 mi North 13.8 mph - N/A   Overcast
8:15 AM 59.5 °F 48.9 °F 68% 30.18 in 10.0 mi North 12.7 mph - N/A   Overcast
8:35 AM 59.5 °F 48.7 °F 67% 30.18 in 10.0 mi North 11.5 mph - N/A   Overcast
8:55 AM 60.1 °F 49.1 °F 67% 30.18 in 10.0 mi North 15.0 mph - N/A   Overcast
9:15 AM 60.3 °F 49.5 °F 68% 30.20 in 10.0 mi North 13.8 mph - N/A   Overcast
9:55 AM 61.7 °F 50.5 °F 67% 30.20 in 10.0 mi NNE 13.8 mph - N/A   Overcast
10:15 AM 62.1 °F 50.2 °F 65% 30.20 in 10.0 mi North 13.8 mph - N/A   Overcast
10:35 AM 62.6 °F 50.2 °F 64% 30.20 in 10.0 mi North 13.8 mph - N/A   Overcast
10:55 AM 63.0 °F 50.4 °F 63% 30.21 in 10.0 mi NNE 12.7 mph - N/A   Overcast
11:15 AM 63.3 °F 50.9 °F 64% 30.20 in 10.0 mi North 10.4 mph - N/A   Overcast
11:35 AM 63.3 °F 50.9 °F 64% 30.20 in 10.0 mi NNE 9.2 mph - N/A   Overcast
11:55 AM 64.6 °F 51.1 °F 62% 30.20 in 10.0 mi NNE 12.7 mph - N/A   Overcast
12:15 PM 65.5 °F 51.3 °F 60% 30.20 in 10.0 mi North 10.4 mph - N/A   Overcast
12:35 PM 66.0 °F 51.1 °F 59% 30.19 in 10.0 mi NNE 9.2 mph - N/A   Overcast
12:55 PM 66.7 °F 51.4 °F 58% 30.18 in 10.0 mi North 9.2 mph - N/A   Overcast
1:15 PM 67.1 °F 51.8 °F 58% 30.18 in 10.0 mi NE 6.9 mph - N/A   Overcast
1:35 PM 67.6 °F 52.0 °F 57% 30.17 in 10.0 mi NNE 4.6 mph - N/A   Overcast
1:55 PM 67.8 °F 52.2 °F 57% 30.16 in 10.0 mi NNE 3.5 mph - N/A   Overcast
2:15 PM 68.0 °F 52.3 °F 57% 30.15 in 10.0 mi NNE 6.9 mph - N/A   Overcast
2:35 PM 68.5 °F 52.5 °F 57% 30.14 in 10.0 mi NE 3.5 mph - N/A   Overcast
3:15 PM 69.1 °F 52.7 °F 56% 30.12 in 10.0 mi NNE 6.9 mph - N/A   Overcast
3:35 PM 69.6 °F 52.7 °F 55% 30.12 in 10.0 mi NNE 8.1 mph - N/A   Overcast
3:55 PM 70.9 °F 53.2 °F 54% 30.11 in 10.0 mi North 5.8 mph - N/A   Mostly Cloudy
4:15 PM 70.2 °F 53.4 °F 55% 30.11 in 10.0 mi NNE 5.8 mph - N/A   Mostly Cloudy
4:35 PM 70.5 °F 53.8 °F 55% 30.10 in 10.0 mi NNE 3.5 mph - N/A   Scattered Clouds
4:55 PM 71.1 °F 54.0 °F 55% 30.10 in 10.0 mi NNE 4.6 mph - N/A   Clear
5:15 PM 71.4 °F 54.5 °F 55% 30.09 in 10.0 mi NE 5.8 mph - N/A   Clear
5:35 PM 71.4 °F 54.7 °F 55% 30.09 in 10.0 mi NE 9.2 mph - N/A   Clear
5:55 PM 71.2 °F 54.9 °F 56% 30.09 in 10.0 mi ENE 5.8 mph - N/A   Clear
6:15 PM 70.9 °F 55.0 °F 57% 30.08 in 10.0 mi ENE 8.1 mph - N/A   Clear
6:35 PM 70.2 °F 55.0 °F 59% 30.09 in 10.0 mi ENE 6.9 mph - N/A   Clear
6:55 PM 68.9 °F 55.4 °F 62% 30.09 in 10.0 mi East 4.6 mph - N/A   Clear
7:15 PM 67.5 °F 56.3 °F 67% 30.09 in 10.0 mi Calm Calm - N/A   Scattered Clouds
7:35 PM 66.9 °F 56.3 °F 69% 30.09 in 10.0 mi Calm Calm - N/A   Clear
8:15 PM 66.4 °F 56.7 °F 71% 30.10 in 10.0 mi Calm Calm - N/A   Scattered Clouds
9:15 PM 67.3 °F 57.6 °F 71% 30.11 in 10.0 mi Calm Calm - N/A   Overcast
9:35 PM 67.5 °F 58.3 °F 72% 30.11 in 10.0 mi Calm Calm - N/A   Overcast
9:55 PM 67.1 °F 59.0 °F 75% 30.11 in 10.0 mi Calm Calm - N/A   Overcast
10:15 PM 66.4 °F 59.0 °F 77% 30.10 in 10.0 mi NNE 5.8 mph - N/A   Overcast
10:35 PM 66.2 °F 58.8 °F 77% 30.10 in 10.0 mi NNE 5.8 mph - N/A   Overcast
10:55 PM 65.8 °F 58.6 °F 78% 30.10 in 10.0 mi NNE 5.8 mph - N/A   Mostly Cloudy
11:15 PM 66.2 °F 59.0 °F 78% 30.10 in 10.0 mi NNE 4.6 mph - N/A   Mostly Cloudy
11:35 PM 65.7 °F 59.0 °F 79% 30.10 in 10.0 mi NNE 4.6 mph - N/A   Scattered Clouds
11:55 PM 65.3 °F 58.6 °F 79% 30.10 in 10.0 mi NNE 4.6 mph - N/A   Mostly Cloudy